EW2575 Weather Reports


Display with metric or nautical units.
time (UTC)temp
F
wind
direction
speed
MPH
gust
MPH
rain 1hr
in
rain 24hr
in
rain mn
in
humidity
%
barometer
mb
20260904042044 68 118 7.0 10.0 0.00 0.00 0.00 39 1018.5
20260904041546 68 113 8.0 10.0 0.00 0.00 0.00 43 1018.5
20260904041043 68 115 8.0 10.0 0.00 0.00 0.00 44 1018.5
20260904040542 68 108 8.0 10.0 0.00 0.00 0.00 44 1018.6
20260904040048 68 107 7.0 9.0 0.00 0.00 0.00 44 1018.6
20260904035540 69 105 6.0 8.0 0.00 0.00 0.00 43 1018.8
20260904035042 69 103 4.0 6.0 0.00 0.00 0.00 44 1018.9
20260904034540 69 107 2.0 6.0 0.00 0.00 0.00 45 1018.9
20260904034040 69 112 3.0 8.0 0.00 0.00 0.00 44 1018.9
20260904033540 69 119 5.0 8.0 0.00 0.00 0.00 40 1018.9
20260904033052 69 110 4.0 8.0 0.00 0.00 0.00 39 1018.9
20260904032538 69 109 5.0 8.0 0.00 0.00 0.00 39 1018.9
20260904032038 69 103 6.0 9.0 0.00 0.00 0.00 39 1018.9
20260904031538 69 112 7.0 9.0 0.00 0.00 0.00 41 1018.8
20260904031038 69 96 7.0 8.0 0.00 0.00 0.00 42 1018.8
20260904030537 69 113 7.0 8.0 0.00 0.00 0.00 42 1018.9
20260904030036 69 103 6.0 8.0 0.00 0.00 0.00 42 1019.0
20260904025535 69 107 6.0 9.0 0.00 0.00 0.00 42 1019.2
20260904025035 69 111 7.0 9.0 0.00 0.00 0.00 41 1019.4
20260904024535 69 109 7.0 9.0 0.00 0.00 0.00 40 1019.4
20260904024033 69 113 6.0 8.0 0.00 0.00 0.00 42 1019.4
20260904023531 69 112 6.0 9.0 0.00 0.00 0.00 42 1019.4
20260904023034 69 107 7.0 10.0 0.00 0.00 0.00 42 1019.5
20260904022530 69 112 8.0 10.0 0.00 0.00 0.00 41 1019.6
20260904022030 68 101 7.0 10.0 0.00 0.00 0.00 44 1019.6
20260904021532 68 107 7.0 9.0 0.00 0.00 0.00 45 1019.7
20260904021028 68 108 6.0 9.0 0.00 0.00 0.00 46 1019.7
20260904020528 68 114 7.0 9.0 0.00 0.00 0.00 47 1019.6
20260904020028 68 105 6.0 9.0 0.00 0.00 0.00 48 1019.7
20260904015527 68 109 7.0 9.0 0.00 0.00 0.00 48 1019.8
20260904015026 68 105 7.0 9.0 0.00 0.00 0.00 48 1019.8
20260904014527 68 115 7.0 9.0 0.00 0.00 0.00 45 1019.9
20260904014024 68 107 7.0 10.0 0.00 0.00 0.00 46 1020.0
20260904013522 68 115 7.0 10.0 0.00 0.00 0.00 47 1020.1
20260904013022 68 109 6.0 10.0 0.00 0.00 0.00 49 1020.2
20260904012525 68 119 6.0 10.0 0.00 0.00 0.00 50 1020.1
20260904012020 67 108 6.0 9.0 0.00 0.00 0.00 51 1020.1
20260904011519 67 99 7.0 9.0 0.00 0.00 0.00 52 1020.2
20260904011017 67 117 6.0 8.0 0.00 0.00 0.00 57 1020.3
20260904010521 67 116 5.0 8.0 0.00 0.00 0.00 59 1020.4
20260904010017 67 96 6.0 8.0 0.00 0.00 0.00 57 1020.4
20260904005516 67 105 5.0 8.0 0.00 0.00 0.00 60 1020.4
20260904005014 67 119 6.0 8.0 0.00 0.00 0.00 61 1020.5
20260904004513 67 112 6.0 8.0 0.00 0.00 0.00 65 1020.5
20260904004012 66 116 5.0 8.0 0.00 0.00 0.00 69 1020.5
20260904003512 66 90 6.0 8.0 0.00 0.00 0.00 71 1020.6
20260904003010 66 107 6.0 8.0 0.00 0.00 0.00 73 1020.6
20260904002610 65 103 6.0 8.0 0.00 0.00 0.00 75 1020.6
20260904002011 64 104 3.0 6.0 0.00 0.00 0.00 81 1020.7
20260904001508 65 96 0.0 5.0 0.00 0.00 0.00 84 1020.7
20260904001007 67 181 1.0 6.0 0.00 0.00 0.00 86 1020.7
20260904000509 68 141 2.0 6.0 0.00 0.00 0.00 85 1020.7
20260904000006 68 127 2.0 6.0 0.00 0.00 0.00 82 1020.8
20260903235505 68 172 3.0 6.0 0.00 0.00 0.00 81 1020.8
20260903235004 67 183 0.0 0.0 0.00 0.00 0.00 76 1020.9
20260903234505 67 168 0.0 2.0 0.00 0.00 0.00 68 1020.8
20260903234004 67 194 0.0 3.0 0.00 0.00 0.00 74 1020.8
20260903233502 67 197 1.0 4.0 0.00 0.00 0.00 70 1020.8
20260903233001 67 85 0.0 3.0 0.00 0.00 0.00 74 1020.8
20260903232501 67 85 2.0 4.0 0.00 0.00 0.00 73 1020.7
20260903232100 67 85 2.0 4.0 0.00 0.00 0.00 73 1020.7
20260903231559 67 86 0.0 3.0 0.00 0.00 0.00 77 1020.7
20260903231057 68 86 1.0 3.0 0.00 0.00 0.00 80 1020.7
20260903230558 68 86 0.0 0.0 0.00 0.00 0.00 80 1020.6
20260903230110 68 86 0.0 1.0 0.00 0.00 0.00 79 1020.6
20260903225556 68 86 0.0 2.0 0.00 0.00 0.00 79 1020.6
20260903225055 68 86 0.0 2.0 0.00 0.00 0.00 79 1020.6
20260903224626 68 86 0.0 1.0 0.00 0.00 0.00 80 1020.5
20260903224055 68 85 0.0 4.0 0.00 0.00 0.00 82 1020.6
20260903223555 68 85 0.0 4.0 0.00 0.00 0.00 82 1020.6
20260903223130 67 86 2.0 3.0 0.00 0.00 0.00 83 1020.6
20260903222554 68 21 0.0 3.0 0.00 0.00 0.00 86 1020.6
20260903222054 68 21 0.0 3.0 0.00 0.00 0.00 86 1020.6
20260903221555 68 88 0.0 4.0 0.00 0.00 0.00 87 1020.6
20260903221058 67 88 2.0 4.0 0.00 0.00 0.00 89 1020.4
20260903220554 66 88 2.0 4.0 0.00 0.00 0.00 91 1020.5
20260903220056 67 71 0.0 2.0 0.00 0.00 0.00 92 1020.5
20260903215555 67 26 1.0 2.0 0.00 0.00 0.00 92 1020.7
20260903215053 67 146 0.0 0.0 0.00 0.00 0.00 93 1020.9
20260903214602 67 146 0.0 0.0 0.00 0.00 0.00 93 1020.8
20260903214052 67 146 0.0 0.0 0.00 0.00 0.00 92 1020.5
20260903213551 67 146 0.0 1.0 0.00 0.00 0.00 92 1020.5
20260903213106 67 146 0.0 2.0 0.00 0.00 0.00 92 1020.6
20260903212551 67 146 0.0 2.0 0.00 0.00 0.00 92 1020.5
20260903212050 67 146 0.0 3.0 0.00 0.00 0.00 92 1020.4
20260903211549 67 146 0.0 3.0 0.00 0.00 0.00 92 1020.3
20260903211050 67 146 1.0 4.0 0.00 0.00 0.00 92 1020.1
20260903210548 67 146 1.0 4.0 0.00 0.00 0.00 92 1020.0
20260903210111 67 259 0.0 3.0 0.00 0.00 0.00 92 1019.9
20260903205548 68 259 1.0 3.0 0.00 0.00 0.00 91 1019.9
20260903205046 68 259 2.0 3.0 0.00 0.00 0.00 91 1019.7
20260903204546 68 259 2.0 3.0 0.00 0.00 0.00 91 1019.4
20260903204054 68 259 0.0 2.0 0.00 0.00 0.00 91 1019.3
20260903203546 68 259 0.0 1.0 0.00 0.00 0.00 90 1019.2
20260903203044 68 259 0.0 2.0 0.00 0.00 0.00 90 1019.3
20260903202544 68 259 0.0 2.0 0.00 0.00 0.00 90 1019.2
20260903202044 68 259 0.0 1.0 0.00 0.00 0.00 90 1019.2
20260903201544 68 259 0.0 3.0 0.00 0.00 0.00 90 1019.3
20260903201043 68 259 1.0 4.0 0.00 0.00 0.00 89 1019.2
20260903200543 68 259 2.0 4.0 0.00 0.00 0.00 89 1019.2
20260903200043 69 297 2.0 5.0 0.00 0.00 0.00 88 1019.0
20260903195543 69 297 2.0 3.0 0.00 0.00 0.00 87 1018.7
20260903195043 69 297 1.0 3.0 0.00 0.00 0.00 87 1018.7
20260903194548 69 297 1.0 4.0 0.00 0.00 0.00 86 1018.7
20260903194042 69 297 2.0 4.0 0.00 0.00 0.00 86 1018.7
20260903193542 70 297 0.0 2.0 0.00 0.00 0.00 86 1018.5
20260903193045 70 297 0.0 3.0 0.00 0.00 0.00 85 1018.5
20260903192542 70 297 1.0 4.0 0.00 0.00 0.00 85 1018.7
20260903192042 70 297 1.0 6.0 0.00 0.00 0.00 84 1018.6
20260903191541 71 290 2.0 4.0 0.00 0.00 0.00 83 1018.6
20260903191042 71 304 2.0 6.0 0.00 0.00 0.00 83 1018.5
20260903190541 72 275 0.0 3.0 0.00 0.00 0.00 82 1018.5
20260903190040 72 275 0.0 6.0 0.00 0.00 0.00 82 1018.5
20260903185641 72 275 2.0 7.0 0.00 0.00 0.00 81 1018.6
20260903185040 72 265 4.0 7.0 0.00 0.00 0.00 81 1018.6
20260903184549 72 290 2.0 7.0 0.00 0.00 0.00 81 1018.5
20260903184041 72 265 3.0 7.0 0.00 0.00 0.00 80 1018.4
20260903183539 73 253 2.0 5.0 0.00 0.00 0.00 80 1018.3
20260903183040 73 286 2.0 5.0 0.00 0.00 0.00 80 1018.4
20260903182539 73 265 2.0 8.0 0.00 0.00 0.00 79 1018.3
20260903182039 73 256 4.0 7.0 0.00 0.00 0.00 79 1018.4
20260903181539 74 262 4.0 7.0 0.00 0.00 0.00 79 1018.2
20260903181039 74 268 2.0 8.0 0.00 0.00 0.00 79 1018.4
20260903180539 74 336 4.0 8.0 0.00 0.00 0.00 79 1018.4
20260903180039 73 296 3.0 8.0 0.00 0.00 0.00 79 1018.3
20260903175537 74 272 5.0 8.0 0.00 0.00 0.00 78 1018.3
20260903175037 74 330 2.0 5.0 0.00 0.00 0.00 79 1018.3
20260903174537 74 276 1.0 7.0 0.00 0.00 0.00 80 1018.4
20260903174037 73 159 2.0 8.0 0.00 0.00 0.00 79 1018.4
20260903173537 73 267 3.0 8.0 0.00 0.00 0.00 79 1018.5
20260903173035 74 279 5.0 9.0 0.00 0.00 0.00 79 1018.6
20260903172536 74 284 4.0 9.0 0.00 0.00 0.00 79 1018.7
20260903172037 74 271 5.0 10.0 0.00 0.00 0.00 78 1018.7
20260903171535 74 263 3.0 10.0 0.00 0.00 0.00 78 1018.6
20260903171035 74 286 6.0 11.0 0.00 0.00 0.00 76 1018.6
20260903170535 74 336 2.0 11.0 0.00 0.00 0.00 77 1018.6
20260903170035 74 282 5.0 9.0 0.00 0.00 0.00 77 1018.6
20260903165535 74 315 3.0 12.0 0.00 0.00 0.00 77 1018.7
20260903165034 74 262 7.0 12.0 0.00 0.00 0.00 75 1018.8
20260903164535 74 262 5.0 11.0 0.00 0.00 0.00 76 1018.7
20260903164034 74 276 4.0 12.0 0.00 0.00 0.00 74 1018.7
20260903163537 75 281 8.0 13.0 0.00 0.00 0.00 74 1018.7
20260903163039 75 251 6.0 13.0 0.00 0.00 0.00 74 1018.6
20260903162533 74 232 8.0 13.0 0.00 0.00 0.00 73 1018.6
20260903162033 75 261 6.0 13.0 0.00 0.00 0.00 73 1018.6
20260903161532 75 292 5.0 14.0 0.00 0.00 0.00 72 1018.6
20260903161031 76 262 8.0 13.0 0.00 0.00 0.00 69 1018.4
20260903160531 76 254 8.0 12.0 0.00 0.00 0.00 68 1018.4
20260903160040 76 279 7.0 13.0 0.00 0.00 0.00 68 1018.5
20260903155530 76 290 9.0 13.0 0.00 0.00 0.00 68 1018.4
20260903155030 77 282 9.0 13.0 0.00 0.00 0.00 66 1018.2
20260903154531 77 275 8.0 13.0 0.00 0.00 0.00 63 1018.2
20260903154038 78 217 7.0 11.0 0.00 0.00 0.00 61 1018.2
20260903153529 78 276 7.0 12.0 0.00 0.00 0.00 61 1018.2
20260903153029 78 291 6.0 12.0 0.00 0.00 0.00 61 1018.2
20260903152530 78 266 5.0 12.0 0.00 0.00 0.00 61 1018.3
20260903152032 78 277 6.0 12.0 0.00 0.00 0.00 60 1018.4
20260903151529 78 263 8.0 12.0 0.00 0.00 0.00 60 1018.3
20260903151029 78 259 7.0 13.0 0.00 0.00 0.00 60 1018.2
20260903150530 77 245 7.0 13.0 0.00 0.00 0.00 61 1018.3
20260903150038 77 273 5.0 11.0 0.00 0.00 0.00 61 1018.3
20260903145532 78 265 6.0 11.0 0.00 0.00 0.00 61 1018.4
20260903145031 77 219 6.0 11.0 0.00 0.00 0.00 61 1018.4
20260903144535 78 261 7.0 11.0 0.00 0.00 0.00 60 1018.4
20260903144028 78 284 5.0 12.0 0.00 0.00 0.00 62 1018.4
20260903143530 78 266 6.0 12.0 0.00 0.00 0.00 61 1018.4
20260903143027 79 246 7.0 12.0 0.00 0.00 0.00 60 1018.4
20260903142527 80 298 6.0 12.0 0.00 0.00 0.00 60 1018.4
20260903142027 80 267 6.0 10.0 0.00 0.00 0.00 59 1018.3
20260903141526 80 292 4.0 8.0 0.00 0.00 0.00 59 1018.3
20260903141025 80 276 2.0 8.0 0.00 0.00 0.00 60 1018.2
20260903140525 80 258 2.0 8.0 0.00 0.00 0.00 60 1018.1
20260903140024 79 253 3.0 9.0 0.00 0.00 0.00 61 1018.1
20260903135522 78 355 2.0 8.0 0.00 0.00 0.00 63 1018.1
20260903135022 78 277 3.0 9.0 0.00 0.00 0.00 63 1018.3
20260903134521 78 286 5.0 9.0 0.00 0.00 0.00 64 1018.4
20260903134021 77 218 4.0 9.0 0.00 0.00 0.00 64 1018.6
20260903133520 77 257 6.0 9.0 0.00 0.00 0.00 64 1018.6
20260903133020 77 283 5.0 10.0 0.00 0.00 0.00 64 1018.5
20260903132519 77 271 6.0 10.0 0.00 0.00 0.00 65 1018.5
20260903132019 77 315 5.0 10.0 0.00 0.00 0.00 65 1018.5
20260903131519 77 279 3.0 8.0 0.00 0.00 0.00 65 1018.5
20260903131019 77 282 4.0 8.0 0.00 0.00 0.00 65 1018.6
20260903130520 76 152 3.0 9.0 0.00 0.00 0.00 67 1018.7
20260903130018 76 217 4.0 10.0 0.00 0.00 0.00 66 1018.8
20260903125517 76 250 6.0 10.0 0.00 0.00 0.00 66 1018.8
20260903125017 76 310 3.0 11.0 0.00 0.00 0.00 67 1018.9
20260903124516 75 275 6.0 11.0 0.00 0.00 0.00 67 1019.0
20260903124015 75 267 7.0 9.0 0.00 0.00 0.00 67 1019.0
20260903123514 75 286 3.0 9.0 0.00 0.00 0.00 67 1019.0
20260903123015 75 279 4.0 8.0 0.00 0.00 0.00 68 1019.0
20260903122513 75 277 3.0 9.0 0.00 0.00 0.00 68 1019.1
20260903122012 75 263 4.0 10.0 0.00 0.00 0.00 68 1019.3
20260903121521 74 256 5.0 10.0 0.00 0.00 0.00 68 1019.4
20260903121010 74 327 6.0 15.0 0.00 0.00 0.00 68 1019.4
20260903120508 75 261 8.0 15.0 0.00 0.00 0.00 66 1019.5
20260903120011 75 269 6.0 10.0 0.00 0.00 0.00 65 1019.4
20260903115506 75 260 8.0 12.0 0.00 0.00 0.00 64 1019.5
20260903115005 76 232 8.0 12.0 0.00 0.00 0.00 62 1019.5
20260903114503 77 232 10.0 13.0 0.00 0.00 0.00 60 1019.4
20260903114003 77 247 8.0 12.0 0.00 0.00 0.00 59 1019.3
20260903113600 77 251 2.0 5.0 0.00 0.00 0.00 60 1019.2
20260903113100 76 258 3.0 7.0 0.00 0.00 0.00 60 1019.2
20260903112600 76 202 2.0 10.0 0.00 0.00 0.00 61 1019.2
20260903112100 76 202 6.0 10.0 0.00 0.00 0.00 61 1019.2
20260903111557 76 232 6.0 9.0 0.00 0.00 0.00 60 1019.1
20260903111057 77 264 5.0 9.0 0.00 0.00 0.00 61 1019.1
20260903110557 76 220 5.0 12.0 0.00 0.00 0.00 62 1019.0
20260903110056 77 247 6.0 10.0 0.00 0.00 0.00 62 1019.1
20260903105555 77 242 5.0 10.0 0.00 0.00 0.00 60 1019.1
20260903105054 77 270 4.0 9.0 0.00 0.00 0.00 58 1019.1
20260903104601 77 257 5.0 9.0 0.00 0.00 0.00 55 1019.1
20260903104052 76 276 6.0 10.0 0.00 0.00 0.00 57 1019.1
20260903103550 76 260 7.0 10.0 0.00 0.00 0.00 58 1019.0
20260903103050 76 259 4.0 9.0 0.00 0.00 0.00 59 1018.9
20260903102548 75 277 5.0 9.0 0.00 0.00 0.00 61 1018.9
20260903102046 75 275 2.0 7.0 0.00 0.00 0.00 63 1018.8
20260903101550 74 252 4.0 7.0 0.00 0.00 0.00 64 1018.8
20260903101043 74 173 5.0 10.0 0.00 0.00 0.00 66 1018.8
20260903100543 73 258 4.0 8.0 0.00 0.00 0.00 68 1018.9
20260903100045 73 233 4.0 7.0 0.00 0.00 0.00 66 1018.8
20260903095541 73 207 4.0 8.0 0.00 0.00 0.00 66 1018.8
20260903095042 73 247 5.0 9.0 0.00 0.00 0.00 66 1018.7
20260903094541 73 252 5.0 10.0 0.00 0.00 0.00 63 1018.7
20260903094042 74 230 4.0 10.0 0.00 0.00 0.00 61 1018.7
20260903093540 74 300 3.0 9.0 0.00 0.00 0.00 58 1018.5
20260903093039 74 255 6.0 9.0 0.00 0.00 0.00 56 1018.3
20260903092538 76 271 4.0 9.0 0.00 0.00 0.00 49 1018.3
20260903092037 77 282 3.0 7.0 0.00 0.00 0.00 42 1018.3
20260903091550 76 82 2.0 4.0 0.00 0.00 0.00 44 1018.1
20260903091035 76 88 1.0 3.0 0.00 0.00 0.00 45 1018.3
20260903090532 74 58 0.0 4.0 0.00 0.00 0.00 50 1018.4
20260903090031 74 22 2.0 4.0 0.00 0.00 0.00 53 1018.3
20260903085529 73 335 2.0 4.0 0.00 0.00 0.00 53 1018.4
20260903085028 73 299 0.0 3.0 0.00 0.00 0.00 53 1018.3
20260903084527 73 342 1.0 6.0 0.00 0.00 0.00 55 1018.3
20260903084025 73 342 0.0 6.0 0.00 0.00 0.00 54 1018.5
20260903083524 73 52 4.0 6.0 0.00 0.00 0.00 52 1018.6
20260903083022 72 102 0.0 0.0 0.00 0.00 0.00 52 1019.0
20260903082520 71 102 0.0 3.0 0.00 0.00 0.00 49 1018.8
20260903082019 70 102 2.0 6.0 0.00 0.00 0.00 48 1018.7
20260903081521 70 102 2.0 10.0 0.00 0.00 0.00 47 1018.5
20260903081016 69 89 4.0 10.0 0.00 0.00 0.00 45 1018.5
20260903080514 68 92 7.0 10.0 0.00 0.00 0.00 45 1018.6
20260903080013 68 101 7.0 9.0 0.00 0.00 0.00 44 1018.6
20260903075512 68 124 7.0 9.0 0.00 0.00 0.00 43 1018.5
20260903075009 68 108 7.0 10.0 0.00 0.00 0.00 44 1018.5
20260903074509 68 101 7.0 10.0 0.00 0.00 0.00 42 1018.6
20260903074007 68 117 7.0 10.0 0.00 0.00 0.00 44 1018.6
20260903073504 67 123 6.0 12.0 0.00 0.00 0.00 45 1018.5
20260903073014 67 115 8.0 12.0 0.00 0.00 0.00 45 1018.4
20260903072503 68 113 8.0 12.0 0.00 0.00 0.00 46 1018.3
20260903072004 68 107 7.0 12.0 0.00 0.00 0.00 43 1018.2
20260903071502 68 119 10.0 12.0 0.00 0.00 0.00 47 1018.1
20260903071059 68 125 9.0 13.0 0.00 0.00 0.00 45 1018.0
20260903070558 67 159 9.0 15.0 0.00 0.00 0.00 46 1017.9
20260903070059 67 120 11.0 15.0 0.00 0.00 0.00 47 1017.7
20260903065558 66 125 10.0 14.0 0.00 0.00 0.00 49 1017.8
20260903065054 66 107 11.0 14.0 0.00 0.00 0.00 51 1017.6
20260903064555 65 98 10.0 13.0 0.00 0.00 0.00 56 1017.6
20260903064054 64 98 10.0 13.0 0.00 0.00 0.00 65 1017.6
20260903063553 63 74 8.0 11.0 0.00 0.00 0.00 73 1017.5
20260903063053 64 115 2.0 6.0 0.00 0.00 0.00 83 1017.6
20260903062554 63 177 4.0 6.0 0.00 0.00 0.00 85 1017.5
20260903062051 64 117 3.0 7.0 0.00 0.00 0.00 88 1017.5
20260903061556 64 148 4.0 7.0 0.00 0.00 0.00 89 1017.5
20260903061051 65 108 2.0 6.0 0.00 0.00 0.00 90 1017.4
20260903060551 65 108 3.0 4.0 0.00 0.00 0.00 90 1017.5
20260903055550 65 64 3.0 6.0 0.00 0.00 0.00 89 1017.6
20260903055050 65 65 4.0 6.0 0.00 0.00 0.00 88 1017.7
20260903054550 64 98 5.0 7.0 0.00 0.00 0.00 87 1017.6
20260903054052 64 77 3.0 7.0 0.00 0.00 0.00 87 1017.6
20260903053552 64 103 4.0 7.0 0.00 0.00 0.00 87 1017.6
20260903053049 64 72 2.0 4.0 0.00 0.00 0.00 87 1017.6
20260903052549 65 231 0.0 4.0 0.00 0.00 0.00 87 1017.6
20260903052049 65 231 2.0 9.0 0.00 0.00 0.00 86 1017.3
20260903051549 65 78 2.0 9.0 0.00 0.00 0.00 85 1017.1
20260903051049 65 84 6.0 8.0 0.00 0.00 0.00 83 1017.2
20260903050549 66 81 3.0 4.0 0.00 0.00 0.00 82 1017.5
20260903050049 66 48 0.0 2.0 0.00 0.00 0.00 80 1017.4
20260903045548 66 48 1.0 3.0 0.00 0.00 0.00 79 1017.4
20260903045047 66 48 0.0 5.0 0.00 0.00 0.00 77 1017.3
20260903044548 66 45 2.0 4.0 0.00 0.00 0.00 75 1017.5
20260903044049 66 43 2.0 7.0 0.00 0.00 0.00 73 1017.7
20260903043547 66 117 2.0 7.0 0.00 0.00 0.00 70 1017.6
20260903043046 66 92 2.0 13.0 0.00 0.00 0.00 72 1017.4
20260903042546 67 66 3.0 13.0 0.00 0.00 0.00 68 1017.5